Location: Chihuahua
(28.6330°N, 106.0830°W)
Time: 03:53:13
(UTC-07:00)

Daily predictions for brighter satellites

Satellite Brightness Start Highest point End
(mag) Time Altitude Azimuth Time Altitude Azimuth Time Altitude Azimuth
CZ-3 R/B 3.9 02:03:59 10° WSW 03:00:12 85° S 03:11:17 10° E
Cosmos 2227 Rocket 4.3 03:39:18 20° ESE 03:39:18 20° ESE 03:41:13 10° SE
Cosmos 2297 Rocket 3.7 03:51:36 33° E 03:51:36 33° E 03:55:19 10° SE
CZ-4B R/B 4.2 03:56:47 10° NNE 04:01:25 44° E 04:01:25 44° E
Milstar 3 Cent rocket 4.4 04:01:16 16° SSE 04:02:09 17° SE 04:06:10 10° ESE
Cosmos 2082 4.0 04:18:49 63° NE 04:19:11 65° ENE 04:24:50 10° SSE
OAO 3 Rocket 4.4 04:20:32 38° NE 04:20:32 38° NE 04:24:09 10° E
Cosmos 1821 Rocket 3.8 04:25:03 79° N 04:25:03 79° N 04:30:51 10° N
Cosmos 372 Rocket 4.5 04:30:26 33° SSE 04:32:28 56° ESE 04:37:27 10° NNE
Cosmos 1125 Rocket 4.0 04:30:03 28° SSE 04:32:37 56° ESE 04:37:41 10° NNE
Cosmos 1535 Rocket 4.3 04:32:44 25° S 04:36:33 83° W 04:42:41 10° N
Cosmos 1980 Rocket 2.0 04:37:44 78° WSW 04:38:01 82° WNW 04:43:44 10° NNE
Meteor 2-10 Rocket 4.0 04:39:50 43° N 04:39:50 43° N 04:43:14 10° N
CENTAUR R/B 3.1 04:42:55 35° NW 04:46:36 61° WSW 04:54:55 10° SSE
BREEZE-M DEB (TANK) 4.1 04:45:44 50° NW 04:47:17 89° SW 05:02:55 10° SE
Tiangong 1 4.1 04:51:59 10° ESE 04:51:59 10° ESE 04:51:59 10° ESE
IRS-1C Rocket 3.9 04:44:44 10° N 04:50:00 75° WNW 04:52:37 30° SSW
Palapa 6 Rocket 4.0 04:52:27 41° SSW 04:53:18 44° S 04:57:56 10° ESE
ATLAS 5 CENTAUR R/B 2.1 04:51:37 25° S 04:53:56 56° ESE 04:58:27 10° NE
USA 215 3.7 04:49:46 10° SSE 04:55:45 38° SW 04:56:14 38° WSW
Hubble Space Telescope 0.7 04:57:58 74° SSW 04:58:08 76° S 05:02:16 10° E
SEDSat Delta rocket 3.2 04:59:47 54° NW 05:00:32 63° N 05:04:55 10° ENE
Cosmos 1000 Rocket 4.5 04:56:16 10° NNW 05:02:16 53° W 05:08:13 10° SSW
Meteor 1-28 Rocket 4.3 05:00:46 10° S 05:02:55 31° SSW 05:02:55 31° SSW
SJ 16-02 1.6 05:05:27 47° NW 05:05:27 47° NW 05:09:15 10° N
Aureole 1 Rocket 3.7 04:59:29 10° NNW 05:06:25 78° WSW 05:11:35 10° S
Meteor 2-17 Rocket 4.3 05:02:34 10° S 05:08:36 80° W 05:14:41 10° N
Cosmos 1697 Rocket 4.2 05:10:38 19° NW 05:10:38 19° NW 05:13:08 10° NNW
Okean-O 3.0 05:05:04 10° NNE 05:09:28 63° ESE 05:13:51 10° S
Cosmos 1605 Rocket 3.8 05:03:55 10° S 05:10:04 77° W 05:16:11 10° N
SL-16 R/B 2.8 05:05:54 10° S 05:11:25 58° ESE 05:16:59 10° NNE
COSMO-SKYMED 1 3.5 05:07:48 10° SSE 05:11:57 48° ENE 05:16:09 10° N
Feng Yun 1-1 Rocket 4.3 05:09:58 10° NNE 05:15:35 88° ESE 05:21:20 10° SSW
Cosmos 2227 Rocket 3.4 05:21:15 22° WSW 05:21:15 22° WSW 05:24:18 10° SSW
Lacrosse 5 rocket 2.1 05:21:59 12° NNW 05:25:30 49° NE 05:29:33 10° SE
Cosmos 405 3.7 05:24:25 10° N 05:27:55 55° E 05:31:25 10° SSE
CZ-2C R/B 2.5 05:25:57 10° NNE 05:31:05 88° WNW 05:36:17 10° SSW
Cosmos 1606 4.3 05:28:04 10° SSE 05:31:37 37° E 05:35:10 10° NNE
Delta 168 3.9 05:31:52 15° SW 05:33:42 26° SSE 05:36:28 10° ESE
Cosmos 2297 Rocket 3.3 05:33:32 20° W 05:33:45 20° W 05:37:47 10° SSW
NOAA 6 4.1 05:29:32 10° N 05:34:31 51° WNW 05:39:27 10° SSW
ASTRO E2 2.7 05:38:40 22° W 05:41:07 69° SSW 05:45:06 10° ESE
SKYMED 3 4.5 05:37:37 10° S 05:41:55 68° W 05:46:14 10° NNW
Cosmos 2173 Rocket 4.3 05:38:32 10° S 05:44:44 73° E 05:50:52 10° N
Cosmos 1459 Rocket 4.3 05:38:39 10° S 05:44:49 74° E 05:51:06 10° N
IDEFIX/ARIANE 42P 3.0 05:42:03 10° N 05:46:53 39° WNW 05:51:40 10° SW
PAYLOAD A 4.3 05:42:33 10° N 05:47:00 38° WNW 05:51:35 10° SW
Cosmos 405 Rocket 3.2 05:43:17 10° SSW 05:47:03 40° W 05:50:47 10° N
Cosmos 1484 Rocket 3.7 05:47:10 10° NNE 05:51:06 54° E 05:55:01 10° S
SKYMED 2 4.0 05:55:55 10° SSW 05:59:57 39° W 06:04:00 10° NNW
Aureole 3 2.8 05:57:04 10° N 06:00:03 80° E 06:03:20 10° S
OAO 3 Rocket 3.3 05:58:21 11° WNW 06:03:12 81° SSW 06:08:10 10° ESE
Cosmos 2263 Rocket 3.6 05:58:20 10° N 06:03:41 42° ENE 06:09:01 10° SE
Intelsat 5-1 Rocket 3.3 05:52:59 10° W 06:03:46 57° S 06:07:45 10° ESE
Cosmos 1048 Rocket 4.1 06:00:11 10° NNW 06:05:07 50° WSW 06:10:02 10° S
EO 1 Del DPAF 3.2 06:04:08 10° S 06:07:55 66° WSW 06:11:43 10° NNW
Cosmos 2322 Rocket 2.6 06:05:10 10° SW 06:10:26 40° WNW 06:15:45 10° N
Meteor 1-25 Rocket 4.3 06:07:24 10° N 06:13:09 83° W 06:18:57 10° S
